Regional Weather Roundup
Issued by NWS

Home | Current Version | Previous Version | Graphics & Text | Print | Product List | Glossary On
Versions: 1 2 3 4 5 6 7 8 9 10 11 12 13 14 15 16 17 18 19 20 21 22 23 24 25 26 27 28 29 30 31 32 33 34 35 36 37 38 39 40 41 42 43 44 45 46 47 48 49 50
000
ASUS43 KFSD 311210
RWRSD

WEATHER ROUNDUP FOR SOUTH DAKOTA
NATIONAL WEATHER SERVICE SIOUX FALLS SD
700 AM CDT FRI JUL 31 2015

NOTE: "FAIR" INDICATES FEW OR NO CLOUDS BELOW 12,000 FEET WITH NO
SIGNIFICANT WEATHER AND/OR OBSTRUCTIONS TO VISIBILITY.


SDZ001>005-009-010-012>017-311300-
NORTHWEST AND NORTH CENTRAL SOUTH DAKOTA

CITY           SKY/WX    TMP DP  RH WIND       PRES   REMARKS
BUFFALO          N/A     63  46  54 CALM      30.18R
FAITH            N/A     58  50  75 NE6       30.20S
MOBRIDGE       CLEAR     56  55  97 CALM      30.16R
$$

SDZ012>016-024>037-041>051-057-063-072>074-311300-
SOUTHWEST AND SOUTH CENTRAL SOUTH DAKOTA

CITY           SKY/WX    TMP DP  RH WIND       PRES   REMARKS
RAPID CTY ARPT CLEAR     58  48  69 NW8       30.22R
PIERRE         CLEAR     57  52  83 NE8       30.15R
CUSTER         CLEAR     51  41  68 NW5       30.37R
ELLSWORTH AFB  CLEAR     61  47  61 SW7       30.21S
PHILIP         CLEAR     54  52  93 W5        30.17S
PINE RIDGE     CLEAR     51  48  89 E3        30.23S
SPEARFISH      FAIR      55  45  67 CALM      30.27R
WINNER         FAIR      62  54  74 CALM      30.17R
$$

SDZ004>011-016>023-039-040-311300-
NORTHEAST SOUTH DAKOTA

CITY           SKY/WX    TMP DP  RH WIND       PRES   REMARKS
ABERDEEN       CLEAR     54  50  86 CALM      30.15S
WATERTOWN      CLEAR     58  54  86 N5        30.16R
BROOKINGS      CLEAR     55  54  94 CALM      30.18R
SISSETON         N/A     57  52  83 NW5       30.12R
$$

SDZ017-020-022-023-036>040-048>070-311300-
SOUTHEAST SOUTH DAKOTA

CITY           SKY/WX    TMP DP  RH WIND       PRES   REMARKS
SIOUX FALLS    MOCLDY    61  59  93 CALM      30.14R
HURON          CLEAR     59  57  93 CALM      30.16R
CHAMBERLAIN    CLEAR     60  56  87 CALM      30.16R
MITCHELL       CLEAR     60  57  89 NW3       30.15R
YANKTON          N/A    N/A N/A N/A MISG        N/A
$$

ABBREVIATIONS USED IN REMARKS
   TC - TEMPERATURE IN CELSIUS
  WCI - WIND CHILL INDEX
   HX - HEAT INDEX
  VSB - VISIBILITY



USA.gov is the U.S. government's official web portal to all federal, state and local government web resources and services.